Terminal Aerodrome Forecast
Issued by NWS Key West, FL

Home | Current Version | Previous Version | Text Only | Print | Product List | Glossary On
Versions: 1 2 3 4 5 6 7 8 9 10 11 12 13 14 15 16 17 18 19 20 21 22 23 24 25 26 27 28 29 30
000
FTUS42 KKEY 242300
TAFEYW
TAF
KEYW 242330Z 2500/2524 02013G20KT P6SM FEW020 SCT050 SCT100
     FM251200 01012G20KT P6SM SCT025 SCT050
     FM251500 01014G22KT P6SM FEW025=

USA.gov is the U.S. government's official web portal to all federal, state and local government web resources and services.